When you browse on this site, cookies collect data to enhance your experience and personalize the content and advertising you see.
Visit our Privacy Policy to learn more. By continuing to use the site, you agree to this use of cookies and data.
  • In Switzerland
  • List of Countries
  • For 7 days
  • Water Temperature
  • Satellite Maps
  • Weather Map
  • Weather Widgets
  • user-avatar
    Login

    Hourly Weather Plavni

    Today, 21 February, Thursday

    Time Temperature Precipitation Wind Pressure Humidity
    00:00 +7°C° 0 mm 3 mps 764 mmHg 75%
    01:00 +5°C° 0 mm 3 mps 764 mmHg 75%
    02:00 +5°C° 0 mm 3 mps 764 mmHg 76%
    03:00 +5°C° 0 mm 3 mps 764 mmHg 76%
    04:00 +5°C° 0 mm 3 mps 765 mmHg 76%
    05:00 +4°C° 0 mm 3 mps 765 mmHg 75%
    06:00 +4°C° 0 mm 3 mps 765 mmHg 75%
    07:00 +5°C° 0 mm 3 mps 765 mmHg 75%
    08:00 +5°C° 0 mm 3 mps 766 mmHg 74%
    09:00 +6°C° 0 mm 4 mps 766 mmHg 64%
    10:00 +7°C° 0 mm 5 mps 766 mmHg 54%
    11:00 +9°C° 0 mm 6 mps 766 mmHg 45%
    12:00 +9°C° 0 mm 6 mps 766 mmHg 43%
    13:00 +10°C° 0 mm 5 mps 766 mmHg 41%
    14:00 +10°C° 0 mm 5 mps 766 mmHg 39%
    15:00 +11°C° 0 mm 4 mps 766 mmHg 39%
    16:00 +11°C° 0 mm 4 mps 765 mmHg 40%
    17:00 +11°C° 0 mm 3 mps 765 mmHg 40%
    18:00 +10°C° 0 mm 2 mps 765 mmHg 45%
    19:00 +9°C° 0 mm 2 mps 766 mmHg 49%
    20:00 +9°C° 0 mm 1 mps 766 mmHg 53%
    21:00 +8°C° 0 mm 1 mps 766 mmHg 55%
    22:00 +8°C° 0 mm 1 mps 766 mmHg 57%
    23:00 +7°C° 0 mm 1 mps 766 mmHg 59%

    Tomorrow, 22 February, Friday

    Time Temperature Precipitation Wind Pressure Humidity
    00:00 +7°C° 0 mm 1 mps 765 mmHg 61%
    01:00 +6°C° 0 mm 2 mps 765 mmHg 62%
    02:00 +5°C° 0 mm 2 mps 765 mmHg 64%
    03:00 +5°C° 0 mm 2 mps 764 mmHg 65%
    04:00 +5°C° 0 mm 2 mps 763 mmHg 65%
    05:00 +5°C° 0 mm 2 mps 763 mmHg 65%
    06:00 +5°C° 0 mm 2 mps 762 mmHg 65%
    07:00 +5°C° 0 mm 2 mps 762 mmHg 64%
    08:00 +5°C° 0 mm 2 mps 762 mmHg 64%
    09:00 +5°C° 0.1 mm 3 mps 761 mmHg 64%
    10:00 +7°C° 0.1 mm 3 mps 761 mmHg 65%
    11:00 +8°C° 0.1 mm 3 mps 760 mmHg 65%
    12:00 +7°C° 0.5 mm 3 mps 760 mmHg 66%
    13:00 +7°C° 0.5 mm 3 mps 759 mmHg 67%
    14:00 +7°C° 0.5 mm 3 mps 759 mmHg 68%
    15:00 +6°C° 0.4 mm 5 mps 760 mmHg 70%
    16:00 +4°C° 0.4 mm 7 mps 760 mmHg 72%
    17:00 +3°C° 0.4 mm 9 mps 761 mmHg 74%
    18:00 0°C° 0.1 mm 9 mps 762 mmHg 71%
    19:00 -3°C° 0.1 mm 10 mps 763 mmHg 68%
    20:00 -6°C° 0.1 mm 11 mps 764 mmHg 64%
    21:00 -7°C° 0 mm 10 mps 765 mmHg 60%
    22:00 -7°C° 0 mm 10 mps 766 mmHg 56%
    23:00 -8°C° 0 mm 10 mps 767 mmHg 52%

    Day after tomorrow, 23 February, Saturday

    Time Temperature Precipitation Wind Pressure Humidity
    00:00 -8°C° 0 mm 9 mps 768 mmHg 51%
    01:00 -9°C° 0 mm 9 mps 768 mmHg 49%
    02:00 -9°C° 0 mm 9 mps 768 mmHg 48%
    03:00 -9°C° 0 mm 9 mps 769 mmHg 48%
    04:00 -9°C° 0 mm 9 mps 769 mmHg 48%
    05:00 -10°C° 0 mm 9 mps 769 mmHg 49%
    06:00 -10°C° 0 mm 9 mps 770 mmHg 48%
    07:00 -9°C° 0 mm 9 mps 770 mmHg 47%
    08:00 -9°C° 0 mm 9 mps 771 mmHg 47%
    09:00 -9°C° 0 mm 9 mps 771 mmHg 45%
    10:00 -8°C° 0 mm 9 mps 771 mmHg 43%
    11:00 -8°C° 0 mm 9 mps 772 mmHg 41%
    12:00 -8°C° 0 mm 9 mps 772 mmHg 41%
    13:00 -6°C° 0 mm 8 mps 772 mmHg 42%
    14:00 -6°C° 0 mm 8 mps 772 mmHg 42%
    15:00 -6°C° 0 mm 8 mps 772 mmHg 45%
    16:00 -7°C° 0 mm 8 mps 772 mmHg 47%
    17:00 -7°C° 0 mm 8 mps 773 mmHg 50%
    18:00 -7°C° 0 mm 7 mps 773 mmHg 51%
    19:00 -7°C° 0 mm 7 mps 773 mmHg 53%
    20:00 -7°C° 0 mm 7 mps 773 mmHg 54%
    21:00 -7°C° 0 mm 7 mps 774 mmHg 56%
    22:00 -8°C° 0 mm 7 mps 774 mmHg 57%
    23:00 -8°C° 0 mm 7 mps 774 mmHg 58%

    24 February, Sunday

    Time Temperature Precipitation Wind Pressure Humidity
    00:00 -8°C° 0 mm 7 mps 774 mmHg 59%
    01:00 -8°C° 0 mm 7 mps 774 mmHg 59%
    02:00 -8°C° 0 mm 6 mps 774 mmHg 59%
    03:00 -8°C° 0 mm 6 mps 774 mmHg 58%
    04:00 -8°C° 0 mm 6 mps 774 mmHg 58%
    05:00 -8°C° 0 mm 6 mps 774 mmHg 57%
    06:00 -8°C° 0 mm 6 mps 774 mmHg 57%
    07:00 -8°C° 0 mm 6 mps 774 mmHg 56%
    08:00 -9°C° 0 mm 6 mps 774 mmHg 55%
    09:00 -8°C° 0 mm 6 mps 774 mmHg 52%
    10:00 -6°C° 0 mm 6 mps 774 mmHg 49%
    11:00 -5°C° 0 mm 6 mps 774 mmHg 46%
    12:00 -5°C° 0 mm 6 mps 774 mmHg 44%
    13:00 -4°C° 0 mm 6 mps 773 mmHg 43%
    14:00 -3°C° 0 mm 6 mps 773 mmHg 41%
    15:00 -2°C° 0 mm 5 mps 773 mmHg 42%
    16:00 -4°C° 0 mm 5 mps 773 mmHg 42%
    17:00 -3°C° 0 mm 4 mps 772 mmHg 42%
    18:00 -4°C° 0 mm 4 mps 773 mmHg 45%
    19:00 -4°C° 0 mm 3 mps 773 mmHg 49%
    20:00 -4°C° 0 mm 2 mps 773 mmHg 52%
    21:00 -4°C° 0 mm 2 mps 773 mmHg 52%
    22:00 -4°C° 0 mm 2 mps 772 mmHg 52%
    23:00 -4°C° 0 mm 2 mps 772 mmHg 52%

    25 February, Monday

    Time Temperature Precipitation Wind Pressure Humidity
    00:00 -4°C° 0 mm 2 mps 772 mmHg 52%
    01:00 -4°C° 0 mm 2 mps 771 mmHg 53%
    02:00 -5°C° 0 mm 3 mps 771 mmHg 53%
    03:00 -5°C° 0 mm 3 mps 770 mmHg 54%
    04:00 -5°C° 0 mm 3 mps 770 mmHg 55%
    05:00 -5°C° 0 mm 3 mps 769 mmHg 56%
    06:00 -4°C° 0 mm 3 mps 769 mmHg 56%
    07:00 -4°C° 0 mm 3 mps 769 mmHg 55%
    08:00 -4°C° 0 mm 3 mps 768 mmHg 55%
    09:00 -1°C° 0 mm 3 mps 768 mmHg 52%
    10:00 0°C° 0 mm 3 mps 768 mmHg 50%
    11:00 +1°C° 0 mm 3 mps 767 mmHg 48%
    12:00 +1°C° 0 mm 4 mps 767 mmHg 48%
    13:00 +1°C° 0 mm 4 mps 766 mmHg 49%
    14:00 +3°C° 0 mm 4 mps 765 mmHg 49%
    15:00 +3°C° 0 mm 4 mps 765 mmHg 52%
    16:00 +3°C° 0 mm 4 mps 765 mmHg 55%
    17:00 +2°C° 0 mm 3 mps 765 mmHg 57%
    18:00 +2°C° 0 mm 3 mps 765 mmHg 65%
    19:00 +1°C° 0 mm 3 mps 765 mmHg 73%
    20:00 +1°C° 0 mm 3 mps 765 mmHg 81%
    21:00 0°C° 0.2 mm 5 mps 765 mmHg 82%
    22:00 +1°C° 0.2 mm 6 mps 764 mmHg 83%
    23:00 0°C° 0.2 mm 7 mps 764 mmHg 83%

    26 February, Tuesday

    Time Temperature Precipitation Wind Pressure Humidity
    00:00 0°C° 0.1 mm 8 mps 764 mmHg 79%
    01:00 0°C° 0.1 mm 8 mps 764 mmHg 75%
    02:00 -1°C° 0.1 mm 9 mps 764 mmHg 71%
    03:00 -1°C° 0 mm 8 mps 764 mmHg 73%
    04:00 -2°C° 0 mm 8 mps 764 mmHg 75%
    05:00 -3°C° 0 mm 7 mps 764 mmHg 78%
    06:00 -3°C° 0 mm 7 mps 764 mmHg 77%
    07:00 -2°C° 0 mm 7 mps 764 mmHg 77%
    08:00 -2°C° 0 mm 7 mps 764 mmHg 77%
    09:00 -1°C° 0 mm 7 mps 764 mmHg 73%
    10:00 0°C° 0 mm 7 mps 763 mmHg 70%
    11:00 +2°C° 0 mm 7 mps 763 mmHg 66%
    12:00 +3°C° 0 mm 7 mps 762 mmHg 62%
    13:00 +4°C° 0 mm 7 mps 762 mmHg 58%
    14:00 +4°C° 0 mm 7 mps 761 mmHg 54%
    15:00 +4°C° 0 mm 7 mps 761 mmHg 57%
    16:00 +3°C° 0 mm 7 mps 761 mmHg 60%
    17:00 +3°C° 0 mm 7 mps 760 mmHg 63%
    18:00 +2°C° 0 mm 6 mps 760 mmHg 67%
    19:00 +1°C° 0 mm 5 mps 760 mmHg 72%
    20:00 +1°C° 0 mm 4 mps 760 mmHg 76%
    21:00 0°C° 0 mm 4 mps 760 mmHg 78%
    22:00 0°C° 0 mm 4 mps 759 mmHg 80%
    23:00 0°C° 0 mm 4 mps 759 mmHg 81%
    Show more